EW2082 Weather Reports


time (UTC)temp
C
wind
direction
speed
KPH
gust
KPH
rain 1hr
cm
rain 24hr
cm
rain mn
cm
humidity
%
barometer
mb
20260906143003 18 237 0.0 0.0 0.00 0.00 0.20 89 1013.0
20260906142004 18 237 0.0 0.0 0.00 0.00 0.18 88 1013.3
20260906141003 18 237 0.0 1.6 0.00 0.00 0.18 86 1013.3
20260906140005 18 87 0.0 1.6 0.00 0.00 0.18 84 1013.3
20260906135003 19 24 0.0 4.8 0.00 0.00 0.18 83 1012.8
20260906134003 20 258 0.0 6.4 0.00 0.00 0.13 86 1012.7
20260906132003 20 285 0.0 1.6 0.00 0.00 0.08 88 1013.0
20260906131004 20 285 0.0 1.6 0.00 0.00 0.08 87 1012.8
20260906130005 20 283 0.0 4.8 0.00 0.00 0.08 86 1012.8
20260906125004 20 301 0.0 4.8 0.00 0.00 0.08 84 1012.7
20260906124003 21 309 3.2 8.0 0.00 0.00 0.08 86 1012.5
20260906122003 21 283 0.0 0.0 0.00 0.00 0.05 80 1012.2
20260906121004 21 283 0.0 0.0 0.00 0.00 0.05 74 1011.9
20260906120005 21 283 0.0 0.0 0.00 0.00 0.00 69 1011.6
20260906115003 21 283 0.0 0.0 0.00 0.00 0.00 66 1011.6
20260906114004 21 283 0.0 0.0 0.00 0.00 0.00 66 1011.5
20260906113005 21 283 0.0 0.0 0.00 0.00 0.00 66 1011.3
20260906111004 21 283 0.0 0.0 0.00 0.00 0.00 73 1011.6
20260906110005 21 283 0.0 0.0 0.00 0.00 0.00 74 1011.5
20260906105004 21 283 0.0 0.0 0.00 0.00 0.00 75 1011.5
20260906103004 21 283 0.0 0.0 0.00 0.00 0.00 76 1011.6
20260906102004 21 283 0.0 0.0 0.00 0.00 0.00 77 1011.5
20260906101004 21 283 0.0 0.0 0.00 0.00 0.00 78 1011.7
20260906100005 21 283 0.0 0.0 0.00 0.00 0.00 79 1011.5
20260906095006 21 283 0.0 0.0 0.00 0.00 0.00 79 1011.5
20260906094004 21 283 0.0 0.0 0.00 0.00 0.00 79 1011.6
20260906092004 21 283 0.0 0.0 0.00 0.00 0.00 80 1011.7
20260906091005 21 283 0.0 0.0 0.00 0.00 0.00 80 1011.7
20260906090005 21 283 0.0 0.0 0.00 0.00 0.00 82 1011.7
20260906085004 21 283 0.0 0.0 0.00 0.00 0.00 82 1011.7
20260906084004 21 283 0.0 0.0 0.00 0.00 0.00 82 1011.8
20260906083004 21 283 0.0 0.0 0.00 0.00 0.00 81 1011.9
20260906082004 21 283 0.0 0.0 0.00 0.00 0.00 81 1011.9
20260906081004 21 283 0.0 0.0 0.00 0.00 0.00 79 1012.0
20260906080005 21 283 0.0 0.0 0.00 0.00 0.00 78 1012.0
20260906075004 20 283 0.0 0.0 0.00 0.00 0.00 77 1011.9
20260906074004 20 283 0.0 0.0 0.00 0.00 0.00 76 1012.0
20260906073004 20 283 0.0 0.0 0.00 0.00 0.00 77 1012.0
20260906071004 21 283 0.0 0.0 0.00 0.00 0.00 79 1012.0
20260906070006 21 283 0.0 0.0 0.00 0.00 0.00 80 1011.9
20260906065004 21 283 0.0 0.0 0.00 0.00 0.00 81 1011.7
20260906064004 21 283 0.0 0.0 0.00 0.00 0.00 80 1011.8
20260906062004 21 283 0.0 0.0 0.00 0.00 0.00 81 1011.9
20260906061004 21 283 0.0 0.0 0.00 0.00 0.00 81 1012.0
20260906060004 22 283 0.0 1.6 0.00 0.00 0.00 82 1012.0
20260906055004 22 278 0.0 1.6 0.00 0.00 0.00 82 1011.9
20260906052004 22 276 0.0 1.6 0.00 0.00 0.00 83 1012.2
20260906051003 22 282 0.0 1.6 0.00 0.00 0.00 84 1012.3
20260906050004 22 282 0.0 1.6 0.00 0.00 0.00 83 1012.3
20260906045004 22 283 0.0 1.6 0.00 0.00 0.00 83 1012.3
20260906043004 22 4 0.0 1.6 0.00 0.00 0.00 81 1012.2
20260906042004 22 333 1.6 1.6 0.00 0.00 0.00 81 1012.2
20260906041004 22 4 0.0 1.6 0.00 0.00 0.00 82 1012.1
20260906040004 22 273 0.0 4.8 0.00 0.00 0.00 83 1012.1
20260906035003 22 91 0.0 3.2 0.00 0.00 0.00 83 1012.0
20260906033004 22 43 0.0 3.2 0.00 0.00 0.00 83 1011.8
20260906032003 22 321 0.0 3.2 0.00 0.00 0.00 82 1011.7
20260906031003 22 6 0.0 1.6 0.00 0.00 0.00 82 1011.6
20260906030004 22 295 0.0 3.2 0.00 0.00 0.00 82 1011.6
20260906024003 23 332 0.0 3.2 0.00 0.00 0.00 82 1011.4
20260906023004 23 30 0.0 3.2 0.00 0.00 0.00 81 1011.5
20260906020004 23 246 1.6 6.4 0.00 0.00 0.00 78 1011.4
20260906015004 24 18 0.0 4.8 0.00 0.00 0.00 78 1011.5
20260906014004 24 263 0.0 3.2 0.00 0.00 0.00 76 1011.4
20260906013004 25 356 0.0 3.2 0.00 0.00 0.00 74 1011.4
20260906012005 25 276 0.0 11.3 0.00 0.00 0.00 70 1011.2
20260906005003 25 345 0.0 8.0 0.00 0.00 0.00 71 1011.2
20260906004003 26 357 0.0 6.4 0.00 0.00 0.00 69 1011.2
20260906003003 26 56 0.0 3.2 0.00 0.00 0.00 67 1011.0
20260906002004 26 293 0.0 6.4 0.00 0.00 0.00 65 1011.1
20260906001003 27 20 0.0 1.6 0.00 0.00 0.00 63 1011.0
20260906000004 27 81 0.0 8.0 0.00 0.00 0.00 59 1011.0
20260905235003 28 39 0.0 3.2 0.00 0.00 0.00 55 1011.0
20260905234003 29 13 1.6 6.4 0.00 0.00 0.00 52 1010.9
20260905232003 30 263 0.0 4.8 0.00 0.00 0.00 51 1010.9
20260905231003 30 49 0.0 3.2 0.00 0.00 0.00 49 1011.0
20260905230005 31 25 0.0 0.0 0.00 0.00 0.00 46 1011.1
20260905225005 31 256 0.0 1.6 0.00 0.00 0.00 43 1011.2
20260905224004 31 70 0.0 3.2 0.00 0.00 0.00 47 1011.3
20260905223005 31 15 0.0 4.8 0.00 0.00 0.00 48 1011.4
20260905222004 31 332 0.0 1.6 0.00 0.00 0.00 50 1011.5
20260905221004 31 13 0.0 6.4 0.00 0.00 0.00 48 1011.6
20260905215005 32 294 0.0 6.4 0.00 0.00 0.00 45 1011.8
20260905214005 32 266 0.0 1.6 0.00 0.00 0.00 46 1011.9
20260905213004 32 251 0.0 4.8 0.00 0.00 0.00 45 1012.1
20260905212004 32 11 0.0 0.0 0.00 0.00 0.00 44 1012.2
20260905211004 32 353 0.0 1.6 0.00 0.00 0.00 45 1012.2
20260905210006 32 321 0.0 3.2 0.00 0.00 0.00 47 1012.3
20260905204004 31 314 3.2 4.8 0.00 0.00 0.00 50 1012.6
20260905203004 31 12 0.0 4.8 0.00 0.00 0.00 49 1012.7
20260905202005 31 60 0.0 3.2 0.00 0.00 0.00 50 1012.7
20260905201005 31 26 0.0 1.6 0.00 0.00 0.00 51 1012.9
20260905200006 31 240 0.0 1.6 0.00 0.00 0.00 49 1013.0
20260905195004 31 172 0.0 0.0 0.00 0.00 0.00 50 1013.2
20260905194005 31 196 0.0 1.6 0.00 0.00 0.00 50 1013.2
20260905193004 31 253 0.0 0.0 0.00 0.00 0.00 51 1013.2
20260905192005 31 214 0.0 0.0 0.00 0.00 0.00 49 1013.3
20260905190005 30 169 0.0 1.6 0.00 0.00 0.00 50 1013.5
20260905185004 30 297 0.0 1.6 0.00 0.00 0.00 51 1013.8
20260905184004 30 23 0.0 1.6 0.00 0.00 0.00 43 1013.9
20260905182004 28 205 0.0 0.0 0.00 0.00 0.00 50 1014.0
20260905181006 28 41 0.0 0.0 0.00 0.00 0.00 51 1014.0
20260905180005 28 198 0.0 0.0 0.00 0.00 0.00 53 1014.0
20260905174004 27 185 0.0 0.0 0.00 0.00 0.00 56 1013.9
20260905173004 27 184 0.0 1.6 0.00 0.00 0.00 60 1013.8
20260905172005 26 111 0.0 0.0 0.00 0.00 0.00 61 1013.8
20260905171004 26 94 0.0 0.0 0.00 0.00 0.00 62 1013.8
20260905170005 25 44 0.0 0.0 0.00 0.00 0.00 65 1013.8
20260905165005 25 48 0.0 1.6 0.00 0.00 0.00 68 1013.8
20260905164004 25 48 0.0 3.2 0.00 0.00 0.00 69 1013.8
20260905162004 26 26 0.0 0.0 0.00 0.00 0.00 66 1013.8
20260905161005 25 146 0.0 0.0 0.00 0.00 0.00 70 1013.8
20260905160005 25 146 0.0 0.0 0.00 0.00 0.00 72 1013.7
20260905155004 25 144 0.0 0.0 0.00 0.00 0.00 72 1013.6
20260905153004 23 144 0.0 0.0 0.00 0.00 0.00 79 1013.5
20260905152004 22 144 0.0 0.0 0.00 0.00 0.00 82 1013.4
20260905150005 20 144 0.0 1.6 0.00 0.00 0.00 91 1013.4
20260905144004 18 142 0.0 0.0 0.00 0.00 0.00 95 1013.2